Time,TemperatureF,DewpointF,PressureIn,WindDirection,WindDirectionDegrees,WindSpeedMPH,WindSpeedGustMPH,Humidity,HourlyPrecipIn,Conditions,Clouds,dailyrainin,SolarRadiationWatts/m^2,SoftwareType,DateUTC
2013-03-01 00:00:00,25.6,20.3,30.17,NE,47,2.0,12.0,80,0.00,,---,0.00,0.00,VWS V14.01,2013-03-01 06:00:00,
2013-03-01 00:01:00,27.5,20.6,30.15,ENE,68,10.0,10.0,75,0.00,,---,0.00,0.00,VWS V14.01,2013-03-01 06:01:00,
2013-03-01 00:06:00,27.2,20.6,30.15,NE,52,7.0,10.0,76,0.00,,---,0.00,0.00,VWS V14.01,2013-03-01 06:06:00,
2013-03-01 00:11:00,26.9,20.4,30.15,NE,46,4.0,10.0,76,0.00,,---,0.00,0.00,VWS V14.01,2013-03-01 06:11:00,
2013-03-01 00:16:00,26.7,20.5,30.16,NE,44,5.0,11.0,77,0.00,,---,0.00,0.00,VWS V14.01,2013-03-01 06:16:00,
2013-03-01 00:21:00,26.5,20.3,30.16,NE,36,4.0,11.0,77,0.00,,---,0.00,0.00,VWS V14.01,2013-03-01 06:21:00,
2013-03-01 00:26:00,26.4,20.5,30.16,ENE,57,4.0,11.0,78,0.00,,---,0.00,0.00,VWS V14.01,2013-03-01 06:26:00,
2013-03-01 00:31:00,26.2,20.3,30.16,ENE,72,3.0,11.0,78,0.00,,---,0.00,0.00,VWS V14.01,2013-03-01 06:31:00,
2013-03-01 00:36:00,26.1,20.2,30.17,ENE,76,4.0,11.0,78,0.00,,---,0.00,0.00,VWS V14.01,2013-03-01 06:36:00,
2013-03-01 00:41:00,25.9,20.3,30.17,ENE,61,3.0,12.0,79,0.00,,---,0.00,0.00,VWS V14.01,2013-03-01 06:41:00,
2013-03-01 00:46:00,25.8,20.2,30.17,NE,44,8.0,12.0,79,0.00,,---,0.00,0.00,VWS V14.01,2013-03-01 06:46:00,
2013-03-01 00:51:00,25.7,20.4,30.17,NNE,28,5.0,12.0,80,0.00,,---,0.00,0.00,VWS V14.01,2013-03-01 06:51:00,
2013-03-01 00:56:00,25.6,20.0,30.17,NE,48,5.0,12.0,79,0.00,,---,0.00,0.00,VWS V14.01,2013-03-01 06:56:00,
2013-03-01 01:00:00,25.6,20.3,30.17,NE,47,2.0,12.0,80,0.00,,---,0.00,0.00,VWS V14.01,2013-03-01 07:00:00,
2013-03-01 01:06:00,25.4,19.8,30.17,ENE,61,3.0,11.0,79,0.00,,---,0.00,0.00,VWS V14.01,2013-03-01 07:06:00,
2013-03-01 01:11:00,25.4,20.1,30.17,ENE,67,4.0,11.0,80,0.00,,---,0.00,0.00,VWS V14.01,2013-03-01 07:11:00,
2013-03-01 01:16:00,25.3,19.7,30.18,NE,35,5.0,11.0,79,0.00,,---,0.00,0.00,VWS V14.01,2013-03-01 07:16:00,
2013-03-01 01:21:00,25.3,19.7,30.17,NNE,29,5.0,11.0,79,0.00,,---,0.00,0.00,VWS V14.01,2013-03-01 07:21:00,
2013-03-01 01:26:00,25.3,19.7,30.18,NE,53,4.0,11.0,79,0.00,,---,0.00,0.00,VWS V14.01,2013-03-01 07:26:00,
2013-03-01 01:31:00,25.2,19.3,30.18,ENE,71,4.0,11.0,78,0.00,,---,0.00,0.00,VWS V14.01,2013-03-01 07:31:00,
2013-03-01 01:36:00,25.2,19.0,30.17,NE,38,2.0,12.0,77,0.00,,---,0.00,0.00,VWS V14.01,2013-03-01 07:36:00,
2013-03-01 01:41:00,25.1,18.9,30.17,NE,46,3.0,12.0,77,0.00,,---,0.00,0.00,VWS V14.01,2013-03-01 07:41:00,
2013-03-01 01:46:00,25.1,18.3,30.17,NE,40,5.0,12.0,75,0.00,,---,0.00,0.00,VWS V14.01,2013-03-01 07:46:00,
2013-03-01 01:51:00,25.1,18.0,30.17,ENE,73,3.0,12.0,74,0.00,,---,0.00,0.00,VWS V14.01,2013-03-01 07:51:00,
2013-03-01 01:56:00,25.0,17.6,30.17,NE,48,2.0,12.0,73,0.00,,---,0.00,0.00,VWS V14.01,2013-03-01 07:56:00,
2013-03-01 02:00:00,25.0,17.6,30.17,NE,47,3.0,12.0,73,0.00,,---,0.00,0.00,VWS V14.01,2013-03-01 08:00:00,
2013-03-01 02:01:00,24.9,17.5,30.17,NE,38,4.0,5.0,73,0.00,,---,0.00,0.00,VWS V14.01,2013-03-01 08:01:00,
2013-03-01 02:06:00,24.9,17.2,30.17,ENE,65,3.0,8.0,72,0.00,,---,0.00,0.00,VWS V14.01,2013-03-01 08:06:00,
2013-03-01 02:11:00,24.8,17.1,30.17,ENE,57,2.0,8.0,72,0.00,,---,0.00,0.00,VWS V14.01,2013-03-01 08:11:00,
2013-03-01 02:16:00,24.8,17.1,30.17,NE,53,3.0,8.0,72,0.00,,---,0.00,0.00,VWS V14.01,2013-03-01 08:16:00,
2013-03-01 02:21:00,24.8,16.8,30.17,NE,53,3.0,8.0,71,0.00,,---,0.00,0.00,VWS V14.01,2013-03-01 08:21:00,
2013-03-01 02:26:00,24.7,16.3,30.17,NE,46,4.0,8.0,70,0.00,,---,0.00,0.00,VWS V14.01,2013-03-01 08:26:00,
2013-03-01 02:31:00,24.7,16.3,30.17,NE,38,6.0,8.0,70,0.00,,---,0.00,0.00,VWS V14.01,2013-03-01 08:31:00,
2013-03-01 02:36:00,24.6,16.2,30.17,NE,49,4.0,8.0,70,0.00,,---,0.00,0.00,VWS V14.01,2013-03-01 08:36:00,
2013-03-01 02:41:00,24.6,16.5,30.18,NNE,27,4.0,8.0,71,0.00,,---,0.00,0.00,VWS V14.01,2013-03-01 08:41:00,
2013-03-01 02:46:00,24.5,16.5,30.17,NE,34,4.0,8.0,71,0.00,,---,0.00,0.00,VWS V14.01,2013-03-01 08:46:00,
2013-03-01 02:51:00,24.5,16.5,30.17,NNE,30,3.0,8.0,71,0.00,,---,0.00,0.00,VWS V14.01,2013-03-01 08:51:00,
2013-03-01 02:56:00,24.5,16.8,30.17,NNE,32,3.0,8.0,72,0.00,,---,0.00,0.00,VWS V14.01,2013-03-01 08:56:00,
2013-03-01 03:00:00,24.5,16.8,30.17,NE,48,2.0,8.0,72,0.00,,---,0.00,0.00,VWS V14.01,2013-03-01 09:00:00,
2013-03-01 03:01:00,24.4,17.0,30.17,NE,45,1.0,5.0,73,0.00,,---,0.00,0.00,VWS V14.01,2013-03-01 09:01:00,
2013-03-01 03:06:00,24.4,17.0,30.17,NNE,26,2.0,5.0,73,0.00,,---,0.00,0.00,VWS V14.01,2013-03-01 09:06:00,
2013-03-01 03:11:00,24.4,17.0,30.17,NE,48,1.0,5.0,73,0.00,,---,0.00,0.00,VWS V14.01,2013-03-01 09:11:00,
2013-03-01 03:16:00,24.3,17.2,30.17,NE,44,1.0,5.0,74,0.00,,---,0.00,0.00,VWS V14.01,2013-03-01 09:16:00,
2013-03-01 03:21:00,24.3,17.2,30.17,North,11,0.0,5.0,74,0.00,,---,0.00,0.00,VWS V14.01,2013-03-01 09:21:00,
2013-03-01 03:26:00,24.3,17.2,30.17,North,11,2.0,5.0,74,0.00,,---,0.00,0.00,VWS V14.01,2013-03-01 09:26:00,
2013-03-01 03:31:00,24.2,17.1,30.17,NNW,345,2.0,7.0,74,0.00,,---,0.00,0.00,VWS V14.01,2013-03-01 09:31:00,
2013-03-01 03:36:00,24.2,17.1,30.17,NNE,17,2.0,7.0,74,0.00,,---,0.00,0.00,VWS V14.01,2013-03-01 09:36:00,
2013-03-01 03:41:00,24.2,17.1,30.17,NNE,17,0.0,7.0,74,0.00,,---,0.00,0.00,VWS V14.01,2013-03-01 09:41:00,
2013-03-01 03:46:00,24.2,17.1,30.17,NNE,17,0.0,7.0,74,0.00,,---,0.00,0.00,VWS V14.01,2013-03-01 09:46:00,
2013-03-01 03:51:00,24.1,17.0,30.17,NNE,25,2.0,7.0,74,0.00,,---,0.00,0.00,VWS V14.01,2013-03-01 09:51:00,
2013-03-01 03:56:00,24.1,17.0,30.18,NNE,17,2.0,7.0,74,0.00,,---,0.00,0.00,VWS V14.01,2013-03-01 09:56:00,
2013-03-01 04:00:00,24.1,17.0,30.18,North,5,1.0,7.0,74,0.00,,---,0.00,0.00,VWS V14.01,2013-03-01 10:00:00,
2013-03-01 04:01:00,24.1,17.0,30.18,NNW,345,2.0,5.0,74,0.00,,---,0.00,0.00,VWS V14.01,2013-03-01 10:01:00,
2013-03-01 04:06:00,24.1,17.0,30.18,NNW,345,1.0,5.0,74,0.00,,---,0.00,0.00,VWS V14.01,2013-03-01 10:06:00,
2013-03-01 04:11:00,24.0,16.9,30.18,North,355,3.0,7.0,74,0.00,,---,0.00,0.00,VWS V14.01,2013-03-01 10:11:00,
2013-03-01 04:16:00,24.0,16.9,30.18,North,360,3.0,7.0,74,0.00,,---,0.00,0.00,VWS V14.01,2013-03-01 10:16:00,
2013-03-01 04:21:00,24.0,17.2,30.18,NNW,333,3.0,7.0,75,0.00,,---,0.00,0.00,VWS V14.01,2013-03-01 10:21:00,
2013-03-01 04:26:00,24.0,17.2,30.18,North,5,0.0,7.0,75,0.00,,---,0.00,0.00,VWS V14.01,2013-03-01 10:26:00,
2013-03-01 04:31:00,23.9,17.1,30.18,North,11,2.0,7.0,75,0.00,,---,0.00,0.00,VWS V14.01,2013-03-01 10:31:00,
2013-03-01 04:36:00,23.9,17.1,30.18,NNE,18,4.0,7.0,75,0.00,,---,0.00,0.00,VWS V14.01,2013-03-01 10:36:00,
2013-03-01 04:41:00,23.9,17.1,30.18,North,355,2.0,7.0,75,0.00,,---,0.00,0.00,VWS V14.01,2013-03-01 10:41:00,
2013-03-01 04:46:00,23.8,17.0,30.18,North,360,2.0,7.0,75,0.00,,---,0.00,0.00,VWS V14.01,2013-03-01 10:46:00,
2013-03-01 04:56:00,23.8,17.4,30.18,North,5,2.0,7.0,76,0.00,,---,0.00,0.00,VWS V14.01,2013-03-01 10:56:00,
2013-03-01 05:00:00,23.8,17.4,30.18,NNE,29,2.0,7.0,76,0.00,,---,0.00,0.00,VWS V14.01,2013-03-01 11:00:00,
2013-03-01 05:01:00,23.7,17.3,30.18,NNE,29,0.0,3.0,76,0.00,,---,0.00,0.00,VWS V14.01,2013-03-01 11:01:00,
2013-03-01 05:06:00,23.7,17.3,30.18,NNE,29,2.0,3.0,76,0.00,,---,0.00,0.00,VWS V14.01,2013-03-01 11:06:00,
2013-03-01 05:11:00,23.7,17.3,30.18,NNE,30,1.0,3.0,76,0.00,,---,0.00,0.00,VWS V14.01,2013-03-01 11:11:00,
2013-03-01 05:16:00,23.6,17.5,30.19,NNE,30,1.0,3.0,77,0.00,,---,0.00,0.00,VWS V14.01,2013-03-01 11:16:00,
2013-03-01 05:21:00,23.6,17.5,30.19,NNE,24,2.0,4.0,77,0.00,,---,0.00,0.00,VWS V14.01,2013-03-01 11:21:00,
2013-03-01 05:26:00,23.6,17.5,30.19,North,355,2.0,5.0,77,0.00,,---,0.00,0.00,VWS V14.01,2013-03-01 11:26:00,
2013-03-01 05:31:00,23.6,17.5,30.19,North,5,2.0,5.0,77,0.00,,---,0.00,0.00,VWS V14.01,2013-03-01 11:31:00,
2013-03-01 05:36:00,23.6,17.5,30.19,NNE,19,2.0,5.0,77,0.00,,---,0.00,0.00,VWS V14.01,2013-03-01 11:36:00,
2013-03-01 05:41:00,23.6,17.5,30.20,North,355,6.0,6.0,77,0.00,,---,0.00,0.00,VWS V14.01,2013-03-01 11:41:00,
2013-03-01 05:46:00,23.6,17.8,30.20,North,9,3.0,6.0,78,0.00,,---,0.00,0.00,VWS V14.01,2013-03-01 11:46:00,
2013-03-01 05:51:00,23.6,17.8,30.20,NNE,26,3.0,6.0,78,0.00,,---,0.00,0.00,VWS V14.01,2013-03-01 11:51:00,
2013-03-01 05:56:00,23.5,17.7,30.20,NNE,26,4.0,6.0,78,0.00,,---,0.00,0.00,VWS V14.01,2013-03-01 11:56:00,
2013-03-01 06:00:00,23.4,18.1,30.23,NNW,345,4.0,6.0,80,0.00,,---,0.00,12.00,VWS V14.01,2013-03-01 12:00:00,
2013-03-01 06:01:00,23.5,17.7,30.20,NNE,15,2.0,3.0,78,0.00,,---,0.00,0.00,VWS V14.01,2013-03-01 12:01:00,
2013-03-01 06:06:00,23.5,17.7,30.20,NNE,15,1.0,3.0,78,0.00,,---,0.00,0.00,VWS V14.01,2013-03-01 12:06:00,
2013-03-01 06:11:00,23.5,18.0,30.20,NNE,24,4.0,4.0,79,0.00,,---,0.00,0.00,VWS V14.01,2013-03-01 12:11:00,
2013-03-01 06:16:00,23.5,18.0,30.21,North,360,3.0,5.0,79,0.00,,---,0.00,0.00,VWS V14.01,2013-03-01 12:16:00,
2013-03-01 06:21:00,23.5,18.0,30.21,NNE,29,2.0,5.0,79,0.00,,---,0.00,0.00,VWS V14.01,2013-03-01 12:21:00,
2013-03-01 06:26:00,23.5,18.0,30.21,NNW,339,5.0,5.0,79,0.00,,---,0.00,0.00,VWS V14.01,2013-03-01 12:26:00,
2013-03-01 06:31:00,23.4,17.9,30.21,North,5,4.0,6.0,79,0.00,,---,0.00,0.00,VWS V14.01,2013-03-01 12:31:00,
2013-03-01 06:36:00,23.4,17.9,30.22,NNE,24,3.0,6.0,79,0.00,,---,0.00,0.00,VWS V14.01,2013-03-01 12:36:00,
2013-03-01 06:41:00,23.4,18.1,30.22,NNE,14,3.0,6.0,80,0.00,,---,0.00,0.00,VWS V14.01,2013-03-01 12:41:00,
2013-03-01 06:46:00,23.4,18.1,30.22,North,5,1.0,6.0,80,0.00,,---,0.00,7.00,VWS V14.01,2013-03-01 12:46:00,
2013-03-01 06:51:00,23.4,18.1,30.22,NNE,16,3.0,6.0,80,0.00,,---,0.00,11.00,VWS V14.01,2013-03-01 12:51:00,
2013-03-01 06:56:00,23.4,18.1,30.22,NNE,32,2.0,6.0,80,0.00,,---,0.00,16.00,VWS V14.01,2013-03-01 12:56:00,
2013-03-01 07:00:00,24.2,19.5,30.24,NNE,16,1.0,4.0,82,0.00,,---,0.00,95.00,VWS V14.01,2013-03-01 13:00:00,
2013-03-01 07:01:00,23.4,18.1,30.23,NNE,26,3.0,4.0,80,0.00,,---,0.00,14.00,VWS V14.01,2013-03-01 13:01:00,
2013-03-01 07:06:00,23.4,18.1,30.23,NNE,26,2.0,4.0,80,0.00,,---,0.00,19.00,VWS V14.01,2013-03-01 13:06:00,
2013-03-01 07:11:00,23.4,18.4,30.23,NNE,26,2.0,4.0,81,0.00,,---,0.00,26.00,VWS V14.01,2013-03-01 13:11:00,
2013-03-01 07:16:00,23.5,18.5,30.23,NNE,26,1.0,4.0,81,0.00,,---,0.00,33.00,VWS V14.01,2013-03-01 13:16:00,
2013-03-01 07:21:00,23.5,18.5,30.23,NNE,26,1.0,4.0,81,0.00,,---,0.00,39.00,VWS V14.01,2013-03-01 13:21:00,
2013-03-01 07:26:00,23.6,18.6,30.24,NNE,26,1.0,4.0,81,0.00,,---,0.00,44.00,VWS V14.01,2013-03-01 13:26:00,
2013-03-01 07:31:00,23.6,18.6,30.24,North,5,0.0,4.0,81,0.00,,---,0.00,51.00,VWS V14.01,2013-03-01 13:31:00,
2013-03-01 07:36:00,23.7,18.7,30.24,North,5,1.0,4.0,81,0.00,,---,0.00,58.00,VWS V14.01,2013-03-01 13:36:00,
2013-03-01 07:41:00,23.8,18.8,30.24,North,5,2.0,4.0,81,0.00,,---,0.00,69.00,VWS V14.01,2013-03-01 13:41:00,
2013-03-01 07:46:00,23.9,19.2,30.24,North,5,0.0,4.0,82,0.00,,---,0.00,84.00,VWS V14.01,2013-03-01 13:46:00,
2013-03-01 07:51:00,24.0,19.3,30.24,North,5,0.0,4.0,82,0.00,,---,0.00,91.00,VWS V14.01,2013-03-01 13:51:00,
2013-03-01 07:56:00,24.2,19.5,30.24,NE,36,2.0,4.0,82,0.00,,---,0.00,90.00,VWS V14.01,2013-03-01 13:56:00,
2013-03-01 08:00:00,25.1,20.4,30.25,NNE,25,5.0,8.0,82,0.00,,---,0.00,251.00,VWS V14.01,2013-03-01 14:00:00,
2013-03-01 08:01:00,24.2,19.5,30.24,NNE,16,2.0,2.0,82,0.00,,---,0.00,98.00,VWS V14.01,2013-03-01 14:01:00,
2013-03-01 08:06:00,24.3,19.6,30.24,NNE,16,1.0,3.0,82,0.00,,---,0.00,116.00,VWS V14.01,2013-03-01 14:06:00,
2013-03-01 08:11:00,24.3,19.6,30.24,NNE,16,1.0,3.0,82,0.00,,---,0.00,125.00,VWS V14.01,2013-03-01 14:11:00,
2013-03-01 08:16:00,24.4,20.0,30.24,NNE,30,2.0,3.0,83,0.00,,---,0.00,139.00,VWS V14.01,2013-03-01 14:16:00,
2013-03-01 08:21:00,24.5,20.1,30.24,NNE,26,3.0,4.0,83,0.00,,---,0.00,146.00,VWS V14.01,2013-03-01 14:21:00,
2013-03-01 08:26:00,24.4,19.7,30.24,NNE,24,3.0,5.0,82,0.00,,---,0.00,156.00,VWS V14.01,2013-03-01 14:26:00,
2013-03-01 08:31:00,24.4,19.7,30.24,North,11,3.0,6.0,82,0.00,,---,0.00,163.00,VWS V14.01,2013-03-01 14:31:00,
2013-03-01 08:36:00,24.4,20.0,30.24,ENE,69,4.0,8.0,83,0.00,,---,0.00,174.00,VWS V14.01,2013-03-01 14:36:00,
2013-03-01 08:41:00,24.4,20.0,30.24,NNE,20,2.0,8.0,83,0.00,,---,0.00,174.00,VWS V14.01,2013-03-01 14:41:00,
2013-03-01 08:46:00,24.5,20.1,30.25,North,5,4.0,8.0,83,0.00,,---,0.00,197.00,VWS V14.01,2013-03-01 14:46:00,
2013-03-01 08:51:00,24.6,20.2,30.24,NNE,22,4.0,8.0,83,0.00,,---,0.00,236.00,VWS V14.01,2013-03-01 14:51:00,
2013-03-01 08:56:00,24.9,20.5,30.25,NNE,18,3.0,8.0,83,0.00,,---,0.00,241.00,VWS V14.01,2013-03-01 14:56:00,
2013-03-01 09:00:00,26.3,20.1,30.25,NE,55,4.0,7.0,77,0.00,,---,0.00,232.00,VWS V14.01,2013-03-01 15:00:00,
2013-03-01 09:01:00,25.1,20.4,30.25,NNE,22,4.0,7.0,82,0.00,,---,0.00,258.00,VWS V14.01,2013-03-01 15:01:00,
2013-03-01 09:06:00,25.2,20.2,30.25,North,5,3.0,7.0,81,0.00,,---,0.00,272.00,VWS V14.01,2013-03-01 15:06:00,
2013-03-01 09:11:00,25.4,20.4,30.25,NNE,26,3.0,7.0,81,0.00,,---,0.00,287.00,VWS V14.01,2013-03-01 15:11:00,
2013-03-01 09:16:00,25.4,20.1,30.25,ENE,63,4.0,7.0,80,0.00,,---,0.00,330.00,VWS V14.01,2013-03-01 15:16:00,
2013-03-01 09:21:00,25.5,20.2,30.25,NE,39,4.0,7.0,80,0.00,,---,0.00,297.00,VWS V14.01,2013-03-01 15:21:00,
2013-03-01 09:26:00,25.9,20.6,30.25,NNE,15,3.0,7.0,80,0.00,,---,0.00,285.00,VWS V14.01,2013-03-01 15:26:00,
2013-03-01 09:31:00,26.4,20.8,30.24,North,360,2.0,7.0,79,0.00,,---,0.00,295.00,VWS V14.01,2013-03-01 15:31:00,
2013-03-01 09:36:00,26.7,20.8,30.25,North,9,2.0,7.0,78,0.00,,---,0.00,297.00,VWS V14.01,2013-03-01 15:36:00,
2013-03-01 09:41:00,26.7,20.5,30.25,NNE,27,4.0,7.0,77,0.00,,---,0.00,255.00,VWS V14.01,2013-03-01 15:41:00,
2013-03-01 09:46:00,26.5,20.3,30.25,NNE,28,2.0,7.0,77,0.00,,---,0.00,243.00,VWS V14.01,2013-03-01 15:46:00,
2013-03-01 09:51:00,26.5,20.3,30.25,NNE,23,3.0,7.0,77,0.00,,---,0.00,214.00,VWS V14.01,2013-03-01 15:51:00,
2013-03-01 09:56:00,26.5,20.3,30.25,ENE,60,4.0,7.0,77,0.00,,---,0.00,234.00,VWS V14.01,2013-03-01 15:56:00,
2013-03-01 10:00:00,26.7,19.5,30.25,NNW,348,4.0,11.0,74,0.00,,---,0.00,253.00,VWS V14.01,2013-03-01 16:00:00,
2013-03-01 10:01:00,26.2,20.0,30.25,NE,49,3.0,4.0,77,0.00,,---,0.00,223.00,VWS V14.01,2013-03-01 16:01:00,
2013-03-01 10:06:00,26.0,19.8,30.25,ENE,67,5.0,11.0,77,0.00,,---,0.00,239.00,VWS V14.01,2013-03-01 16:06:00,
2013-03-01 10:11:00,26.0,20.1,30.25,NNE,22,2.0,11.0,78,0.00,,---,0.00,309.00,VWS V14.01,2013-03-01 16:11:00,
2013-03-01 10:16:00,26.4,20.2,30.25,NE,39,4.0,11.0,77,0.00,,---,0.00,295.00,VWS V14.01,2013-03-01 16:16:00,
2013-03-01 10:21:00,26.4,20.2,30.25,NNE,17,2.0,11.0,77,0.00,,---,0.00,258.00,VWS V14.01,2013-03-01 16:21:00,
2013-03-01 10:26:00,26.6,20.4,30.25,North,351,2.0,11.0,77,0.00,,---,0.00,248.00,VWS V14.01,2013-03-01 16:26:00,
2013-03-01 10:31:00,26.9,20.4,30.25,NNE,27,2.0,11.0,76,0.00,,---,0.00,232.00,VWS V14.01,2013-03-01 16:31:00,
2013-03-01 10:36:00,27.0,20.1,30.25,NNE,21,2.0,11.0,75,0.00,,---,0.00,269.00,VWS V14.01,2013-03-01 16:36:00,
2013-03-01 10:41:00,27.0,20.1,30.25,ENE,72,7.0,11.0,75,0.00,,---,0.00,287.00,VWS V14.01,2013-03-01 16:41:00,
2013-03-01 10:46:00,27.0,19.8,30.25,NNE,30,3.0,11.0,74,0.00,,---,0.00,257.00,VWS V14.01,2013-03-01 16:46:00,
2013-03-01 10:51:00,27.0,19.8,30.25,NNE,18,3.0,11.0,74,0.00,,---,0.00,225.00,VWS V14.01,2013-03-01 16:51:00,
2013-03-01 10:56:00,26.8,19.6,30.25,NNE,33,3.0,11.0,74,0.00,,---,0.00,241.00,VWS V14.01,2013-03-01 16:56:00,
2013-03-01 11:00:00,27.8,18.6,30.26,NE,47,2.0,10.0,68,0.00,,---,0.00,339.00,VWS V14.01,2013-03-01 17:00:00,
2013-03-01 11:01:00,26.8,19.6,30.25,North,355,1.0,6.0,74,0.00,,---,0.00,264.00,VWS V14.01,2013-03-01 17:01:00,
2013-03-01 11:06:00,27.0,19.5,30.25,North,350,3.0,8.0,73,0.00,,---,0.00,292.00,VWS V14.01,2013-03-01 17:06:00,
2013-03-01 11:11:00,27.3,19.5,30.26,NE,55,2.0,8.0,72,0.00,,---,0.00,276.00,VWS V14.01,2013-03-01 17:11:00,
2013-03-01 11:16:00,27.2,19.4,30.26,North,5,2.0,8.0,72,0.00,,---,0.00,279.00,VWS V14.01,2013-03-01 17:16:00,
2013-03-01 11:21:00,27.4,19.6,30.26,NNE,17,3.0,8.0,72,0.00,,---,0.00,281.00,VWS V14.01,2013-03-01 17:21:00,
2013-03-01 11:26:00,27.4,19.2,30.26,NNE,29,3.0,8.0,71,0.00,,---,0.00,287.00,VWS V14.01,2013-03-01 17:26:00,
2013-03-01 11:31:00,27.6,19.1,30.26,NNE,27,4.0,8.0,70,0.00,,---,0.00,297.00,VWS V14.01,2013-03-01 17:31:00,
2013-03-01 11:36:00,27.7,18.9,30.26,North,355,4.0,8.0,69,0.00,,---,0.00,309.00,VWS V14.01,2013-03-01 17:36:00,
2013-03-01 11:41:00,27.8,19.0,30.26,North,5,3.0,8.0,69,0.00,,---,0.00,322.00,VWS V14.01,2013-03-01 17:41:00,
2013-03-01 11:46:00,27.8,19.0,30.26,NE,51,3.0,8.0,69,0.00,,---,0.00,320.00,VWS V14.01,2013-03-01 17:46:00,
2013-03-01 11:51:00,27.9,19.1,30.26,ENE,57,8.0,9.0,69,0.00,,---,0.00,323.00,VWS V14.01,2013-03-01 17:51:00,
2013-03-01 11:56:00,27.7,18.9,30.26,NNE,24,4.0,10.0,69,0.00,,---,0.00,332.00,VWS V14.01,2013-03-01 17:56:00,
2013-03-01 12:00:00,28.5,18.6,30.24,NE,51,7.0,11.0,66,0.01,,---,0.01,366.00,VWS V14.01,2013-03-01 18:00:00,
2013-03-01 12:01:00,27.9,19.1,30.26,NNE,30,2.0,4.0,69,0.00,,---,0.00,348.00,VWS V14.01,2013-03-01 18:01:00,
2013-03-01 12:06:00,28.1,18.6,30.26,NNE,18,4.0,7.0,67,0.00,,---,0.00,369.00,VWS V14.01,2013-03-01 18:06:00,
2013-03-01 12:11:00,28.2,18.7,30.26,NNE,14,5.0,7.0,67,0.00,,---,0.00,385.00,VWS V14.01,2013-03-01 18:11:00,
2013-03-01 12:16:00,28.5,18.6,30.25,North,360,4.0,7.0,66,0.00,,---,0.00,387.00,VWS V14.01,2013-03-01 18:16:00,
2013-03-01 12:21:00,28.6,18.7,30.25,NE,37,3.0,7.0,66,0.00,,---,0.00,373.00,VWS V14.01,2013-03-01 18:21:00,
2013-03-01 12:26:00,28.8,18.5,30.25,North,355,5.0,7.0,65,0.01,,---,0.01,374.00,VWS V14.01,2013-03-01 18:26:00,
2013-03-01 12:31:00,28.8,18.2,30.25,North,5,5.0,11.0,64,0.01,,---,0.01,352.00,VWS V14.01,2013-03-01 18:31:00,
2013-03-01 12:36:00,28.7,18.4,30.25,NNE,24,4.0,11.0,65,0.01,,---,0.01,355.00,VWS V14.01,2013-03-01 18:36:00,
2013-03-01 12:41:00,28.5,18.2,30.25,NNE,13,4.0,11.0,65,0.01,,---,0.01,403.00,VWS V14.01,2013-03-01 18:41:00,
2013-03-01 12:46:00,28.6,18.3,30.25,NNE,21,2.0,11.0,65,0.01,,---,0.01,392.00,VWS V14.01,2013-03-01 18:46:00,
2013-03-01 12:51:00,28.5,18.2,30.24,North,360,5.0,11.0,65,0.01,,---,0.01,362.00,VWS V14.01,2013-03-01 18:51:00,
2013-03-01 12:56:00,28.4,18.5,30.24,NE,38,5.0,11.0,66,0.01,,---,0.01,366.00,VWS V14.01,2013-03-01 18:56:00,
2013-03-01 13:00:00,29.0,18.4,30.23,NE,36,4.0,9.0,64,0.01,,---,0.01,316.00,VWS V14.01,2013-03-01 19:00:00,
2013-03-01 13:01:00,28.5,18.6,30.24,NNE,22,4.0,7.0,66,0.01,,---,0.01,353.00,VWS V14.01,2013-03-01 19:01:00,
2013-03-01 13:06:00,28.6,18.7,30.24,NNE,30,4.0,7.0,66,0.01,,---,0.01,360.00,VWS V14.01,2013-03-01 19:06:00,
2013-03-01 13:11:00,28.5,18.6,30.24,NE,40,2.0,8.0,66,0.01,,---,0.01,373.00,VWS V14.01,2013-03-01 19:11:00,
2013-03-01 13:16:00,28.7,18.8,30.24,North,355,6.0,8.0,66,0.01,,---,0.01,387.00,VWS V14.01,2013-03-01 19:16:00,
2013-03-01 13:21:00,28.9,18.3,30.23,North,360,4.0,9.0,64,0.01,,---,0.01,383.00,VWS V14.01,2013-03-01 19:21:00,
2013-03-01 13:26:00,29.2,18.9,30.23,NNE,15,6.0,9.0,65,0.01,,---,0.01,348.00,VWS V14.01,2013-03-01 19:26:00,
2013-03-01 13:31:00,29.3,18.6,30.23,NNW,327,6.0,9.0,64,0.01,,---,0.01,322.00,VWS V14.01,2013-03-01 19:31:00,
2013-03-01 13:36:00,29.3,19.0,30.23,NNW,336,4.0,9.0,65,0.01,,---,0.01,318.00,VWS V14.01,2013-03-01 19:36:00,
2013-03-01 13:41:00,29.2,18.9,30.23,NNE,25,4.0,9.0,65,0.01,,---,0.01,290.00,VWS V14.01,2013-03-01 19:41:00,
2013-03-01 13:46:00,29.1,18.8,30.23,NNW,343,6.0,9.0,65,0.01,,---,0.01,272.00,VWS V14.01,2013-03-01 19:46:00,
2013-03-01 13:51:00,29.1,18.8,30.23,North,5,4.0,9.0,65,0.01,,---,0.01,297.00,VWS V14.01,2013-03-01 19:51:00,
2013-03-01 13:56:00,29.0,18.4,30.23,North,11,5.0,9.0,64,0.01,,---,0.01,302.00,VWS V14.01,2013-03-01 19:56:00,
2013-03-01 14:00:00,31.1,19.2,30.23,North,5,3.0,8.0,61,0.00,,---,0.01,243.00,VWS V14.01,2013-03-01 20:00:00,
2013-03-01 14:01:00,29.1,18.8,30.23,North,10,2.0,6.0,65,0.00,,---,0.01,334.00,VWS V14.01,2013-03-01 20:01:00,
2013-03-01 14:06:00,29.2,18.9,30.23,NNW,344,4.0,6.0,65,0.00,,---,0.01,295.00,VWS V14.01,2013-03-01 20:06:00,
2013-03-01 14:11:00,29.3,19.0,30.23,NNE,13,4.0,7.0,65,0.00,,---,0.01,323.00,VWS V14.01,2013-03-01 20:11:00,
2013-03-01 14:16:00,29.3,18.6,30.23,North,9,2.0,7.0,64,0.00,,---,0.01,364.00,VWS V14.01,2013-03-01 20:16:00,
2013-03-01 14:21:00,29.5,18.8,30.23,NE,53,3.0,7.0,64,0.00,,---,0.01,285.00,VWS V14.01,2013-03-01 20:21:00,
2013-03-01 14:26:00,29.6,18.9,30.23,NE,56,4.0,7.0,64,0.00,,---,0.01,294.00,VWS V14.01,2013-03-01 20:26:00,
2013-03-01 14:31:00,29.5,18.5,30.23,NNW,330,3.0,7.0,63,0.00,,---,0.01,729.00,VWS V14.01,2013-03-01 20:31:00,
2013-03-01 14:36:00,29.7,18.3,30.23,North,11,5.0,7.0,62,0.00,,---,0.01,322.00,VWS V14.01,2013-03-01 20:36:00,
2013-03-01 14:41:00,29.9,18.5,30.23,NNW,347,5.0,7.0,62,0.00,,---,0.01,731.00,VWS V14.01,2013-03-01 20:41:00,
2013-03-01 14:46:00,30.4,19.3,30.23,North,360,3.0,8.0,63,0.00,,---,0.01,731.00,VWS V14.01,2013-03-01 20:46:00,
2013-03-01 14:51:00,30.8,18.6,30.23,NE,49,2.0,8.0,60,0.00,,---,0.01,211.00,VWS V14.01,2013-03-01 20:51:00,
2013-03-01 14:56:00,31.0,19.1,30.23,NE,36,1.0,8.0,61,0.00,,---,0.01,719.00,VWS V14.01,2013-03-01 20:56:00,
2013-03-01 15:00:00,31.7,18.6,30.23,NNE,19,3.0,7.0,58,0.00,,---,0.01,302.00,VWS V14.01,2013-03-01 21:00:00,
2013-03-01 15:01:00,31.1,18.9,30.23,North,360,2.0,6.0,60,0.00,,---,0.01,230.00,VWS V14.01,2013-03-01 21:01:00,
2013-03-01 15:06:00,30.9,18.7,30.23,NNE,30,3.0,7.0,60,0.00,,---,0.01,464.00,VWS V14.01,2013-03-01 21:06:00,
2013-03-01 15:11:00,31.1,19.2,30.22,NNE,12,6.0,7.0,61,0.00,,---,0.01,439.00,VWS V14.01,2013-03-01 21:11:00,
2013-03-01 15:16:00,31.0,18.4,30.22,NNE,23,3.0,7.0,59,0.00,,---,0.01,171.00,VWS V14.01,2013-03-01 21:16:00,
2013-03-01 15:21:00,30.6,18.4,30.22,NNE,25,4.0,7.0,60,0.00,,---,0.01,543.00,VWS V14.01,2013-03-01 21:21:00,
2013-03-01 15:26:00,30.6,18.8,30.23,North,355,5.0,7.0,61,0.00,,---,0.01,229.00,VWS V14.01,2013-03-01 21:26:00,
2013-03-01 15:31:00,30.6,18.4,30.23,North,5,2.0,7.0,60,0.00,,---,0.01,429.00,VWS V14.01,2013-03-01 21:31:00,
2013-03-01 15:36:00,30.8,18.2,30.23,North,350,3.0,7.0,59,0.00,,---,0.01,420.00,VWS V14.01,2013-03-01 21:36:00,
2013-03-01 15:41:00,30.9,17.9,30.23,NW,321,5.0,7.0,58,0.00,,---,0.01,160.00,VWS V14.01,2013-03-01 21:41:00,
2013-03-01 15:46:00,30.8,18.2,30.23,NE,49,3.0,7.0,59,0.00,,---,0.01,364.00,VWS V14.01,2013-03-01 21:46:00,
2013-03-01 15:51:00,31.0,18.4,30.23,NE,34,2.0,7.0,59,0.00,,---,0.01,348.00,VWS V14.01,2013-03-01 21:51:00,
2013-03-01 15:56:00,31.5,18.8,30.23,NNW,338,3.0,7.0,59,0.00,,---,0.01,318.00,VWS V14.01,2013-03-01 21:56:00,
2013-03-01 16:00:00,30.5,17.5,30.24,NNW,347,2.0,8.0,58,0.00,,---,0.01,67.00,VWS V14.01,2013-03-01 22:00:00,
2013-03-01 16:01:00,31.7,18.2,30.23,NNE,15,1.0,5.0,57,0.00,,---,0.01,306.00,VWS V14.01,2013-03-01 22:01:00,
2013-03-01 16:06:00,31.5,18.0,30.23,NE,40,1.0,5.0,57,0.00,,---,0.01,297.00,VWS V14.01,2013-03-01 22:06:00,
2013-03-01 16:11:00,31.3,17.9,30.23,NNE,19,5.0,6.0,57,0.00,,---,0.01,255.00,VWS V14.01,2013-03-01 22:11:00,
2013-03-01 16:16:00,31.1,18.1,30.23,North,360,2.0,6.0,58,0.00,,---,0.01,251.00,VWS V14.01,2013-03-01 22:16:00,
2013-03-01 16:21:00,31.4,18.4,30.23,North,355,3.0,6.0,58,0.00,,---,0.01,239.00,VWS V14.01,2013-03-01 22:21:00,
2013-03-01 16:26:00,31.5,18.0,30.23,NNW,346,5.0,7.0,57,0.00,,---,0.01,218.00,VWS V14.01,2013-03-01 22:26:00,
2013-03-01 16:31:00,31.3,17.9,30.23,NNE,27,5.0,7.0,57,0.00,,---,0.01,183.00,VWS V14.01,2013-03-01 22:31:00,
2013-03-01 16:36:00,31.1,17.7,30.23,North,9,2.0,7.0,57,0.00,,---,0.01,158.00,VWS V14.01,2013-03-01 22:36:00,
2013-03-01 16:41:00,31.1,17.7,30.23,NNE,22,5.0,7.0,57,0.00,,---,0.01,116.00,VWS V14.01,2013-03-01 22:41:00,
2013-03-01 16:46:00,30.9,17.5,30.24,North,11,3.0,8.0,57,0.00,,---,0.01,76.00,VWS V14.01,2013-03-01 22:46:00,
2013-03-01 16:51:00,30.7,17.3,30.24,North,9,3.0,8.0,57,0.00,,---,0.01,74.00,VWS V14.01,2013-03-01 22:51:00,
2013-03-01 16:56:00,30.6,17.6,30.24,North,9,2.0,8.0,58,0.00,,---,0.01,74.00,VWS V14.01,2013-03-01 22:56:00,
2013-03-01 17:00:00,27.9,15.8,30.25,NNW,333,1.0,6.0,60,0.00,,---,0.01,0.00,VWS V14.01,2013-03-01 23:00:00,
2013-03-01 17:01:00,30.4,17.4,30.24,North,355,3.0,4.0,58,0.00,,---,0.01,54.00,VWS V14.01,2013-03-01 23:01:00,
2013-03-01 17:06:00,30.1,17.1,30.24,North,349,1.0,4.0,58,0.00,,---,0.01,42.00,VWS V14.01,2013-03-01 23:06:00,
2013-03-01 17:11:00,29.9,16.9,30.24,North,350,3.0,5.0,58,0.00,,---,0.01,40.00,VWS V14.01,2013-03-01 23:11:00,
2013-03-01 17:16:00,29.6,16.6,30.24,North,360,3.0,6.0,58,0.00,,---,0.01,35.00,VWS V14.01,2013-03-01 23:16:00,
2013-03-01 17:21:00,29.4,16.9,30.24,North,9,4.0,6.0,59,0.00,,---,0.01,32.00,VWS V14.01,2013-03-01 23:21:00,
2013-03-01 17:26:00,29.2,17.1,30.24,NNE,26,1.0,6.0,60,0.00,,---,0.01,26.00,VWS V14.01,2013-03-01 23:26:00,
2013-03-01 17:31:00,29.0,16.9,30.24,NNE,26,0.0,6.0,60,0.00,,---,0.01,23.00,VWS V14.01,2013-03-01 23:31:00,
2013-03-01 17:36:00,28.8,16.3,30.25,NNW,333,2.0,6.0,59,0.00,,---,0.01,18.00,VWS V14.01,2013-03-01 23:36:00,
2013-03-01 17:41:00,28.6,16.5,30.25,NNW,333,1.0,6.0,60,0.00,,---,0.01,12.00,VWS V14.01,2013-03-01 23:41:00,
2013-03-01 17:46:00,28.4,16.3,30.25,NNW,333,1.0,6.0,60,0.00,,---,0.01,9.00,VWS V14.01,2013-03-01 23:46:00,
2013-03-01 17:51:00,28.3,16.2,30.25,NNW,333,0.0,6.0,60,0.00,,---,0.01,5.00,VWS V14.01,2013-03-01 23:51:00,
2013-03-01 17:56:00,28.1,16.0,30.25,NNW,333,1.0,6.0,60,0.00,,---,0.01,0.00,VWS V14.01,2013-03-01 23:56:00,
2013-03-01 18:00:00,25.6,15.5,30.26,NNW,348,0.0,4.0,65,0.00,,---,0.01,0.00,VWS V14.01,2013-03-02 00:00:00,
2013-03-01 18:01:00,27.9,15.8,30.25,NNW,333,0.0,1.0,60,0.00,,---,0.01,0.00,VWS V14.01,2013-03-02 00:01:00,
2013-03-01 18:06:00,27.7,16.0,30.25,NNW,333,0.0,2.0,61,0.00,,---,0.01,0.00,VWS V14.01,2013-03-02 00:06:00,
2013-03-01 18:11:00,27.4,15.7,30.25,North,355,2.0,4.0,61,0.00,,---,0.01,0.00,VWS V14.01,2013-03-02 00:11:00,
2013-03-01 18:16:00,27.2,15.9,30.25,NNW,348,0.0,4.0,62,0.00,,---,0.01,0.00,VWS V14.01,2013-03-02 00:16:00,
2013-03-01 18:21:00,27.0,15.7,30.25,NNW,348,0.0,4.0,62,0.00,,---,0.01,0.00,VWS V14.01,2013-03-02 00:21:00,
2013-03-01 18:26:00,26.9,16.0,30.26,NNW,348,1.0,4.0,63,0.00,,---,0.01,0.00,VWS V14.01,2013-03-02 00:26:00,
2013-03-01 18:31:00,26.7,15.8,30.26,NNW,348,0.0,4.0,63,0.00,,---,0.01,0.00,VWS V14.01,2013-03-02 00:31:00,
2013-03-01 18:36:00,26.5,15.6,30.26,NNW,348,0.0,4.0,63,0.00,,---,0.01,0.00,VWS V14.01,2013-03-02 00:36:00,
2013-03-01 18:41:00,26.3,15.8,30.26,NNW,348,0.0,4.0,64,0.00,,---,0.01,0.00,VWS V14.01,2013-03-02 00:41:00,
2013-03-01 18:46:00,26.1,15.6,30.26,NNW,348,0.0,4.0,64,0.00,,---,0.01,0.00,VWS V14.01,2013-03-02 00:46:00,
2013-03-01 18:51:00,25.9,15.4,30.26,NNW,348,0.0,4.0,64,0.00,,---,0.01,0.00,VWS V14.01,2013-03-02 00:51:00,
2013-03-01 18:56:00,25.7,15.2,30.26,NNW,348,0.0,4.0,64,0.00,,---,0.01,0.00,VWS V14.01,2013-03-02 00:56:00,
2013-03-01 19:00:00,20.8,12.2,30.27,NNW,348,1.0,2.0,69,0.00,,---,0.01,0.00,VWS V14.01,2013-03-02 01:00:00,
2013-03-01 19:01:00,25.6,15.5,30.26,NNW,348,0.0,1.0,65,0.00,,---,0.01,0.00,VWS V14.01,2013-03-02 01:01:00,
2013-03-01 19:06:00,25.3,15.2,30.26,NNW,348,0.0,1.0,65,0.00,,---,0.01,0.00,VWS V14.01,2013-03-02 01:06:00,
2013-03-01 19:11:00,25.0,14.6,30.26,NNW,348,0.0,1.0,64,0.00,,---,0.01,0.00,VWS V14.01,2013-03-02 01:11:00,
2013-03-01 19:16:00,24.5,13.7,30.26,NNW,348,0.0,1.0,63,0.00,,---,0.01,0.00,VWS V14.01,2013-03-02 01:16:00,
2013-03-01 19:21:00,24.0,13.2,30.26,NNW,348,0.0,1.0,63,0.00,,---,0.01,0.00,VWS V14.01,2013-03-02 01:21:00,
2013-03-01 19:26:00,23.4,12.7,30.26,NNW,348,0.0,1.0,63,0.00,,---,0.01,0.00,VWS V14.01,2013-03-02 01:26:00,
2013-03-01 19:31:00,22.9,12.6,30.26,NNW,348,0.0,1.0,64,0.00,,---,0.01,0.00,VWS V14.01,2013-03-02 01:31:00,
2013-03-01 19:36:00,22.4,12.4,30.27,NNW,348,0.0,1.0,65,0.00,,---,0.01,0.00,VWS V14.01,2013-03-02 01:36:00,
2013-03-01 19:41:00,21.9,12.3,30.27,NNW,348,0.0,2.0,66,0.00,,---,0.01,0.00,VWS V14.01,2013-03-02 01:41:00,
2013-03-01 19:46:00,21.5,12.6,30.27,NNW,348,0.0,2.0,68,0.00,,---,0.01,0.00,VWS V14.01,2013-03-02 01:46:00,
2013-03-01 19:51:00,21.2,12.3,30.27,NNW,348,0.0,2.0,68,0.00,,---,0.01,0.00,VWS V14.01,2013-03-02 01:51:00,
2013-03-01 19:56:00,20.9,12.4,30.27,NNW,348,0.0,2.0,69,0.00,,---,0.01,0.00,VWS V14.01,2013-03-02 01:56:00,
2013-03-01 20:00:00,17.9,11.3,30.27,NNW,348,0.0,2.0,75,0.00,,---,0.01,0.00,VWS V14.01,2013-03-02 02:00:00,
2013-03-01 20:01:00,20.6,11.7,30.27,NNW,348,2.0,2.0,68,0.00,,---,0.01,0.00,VWS V14.01,2013-03-02 02:01:00,
2013-03-01 20:06:00,20.1,11.2,30.27,NNW,348,0.0,2.0,68,0.00,,---,0.01,0.00,VWS V14.01,2013-03-02 02:06:00,
2013-03-01 20:11:00,19.6,10.8,30.27,NNW,348,0.0,2.0,68,0.00,,---,0.01,0.00,VWS V14.01,2013-03-02 02:11:00,
2013-03-01 20:16:00,19.3,10.8,30.27,NNW,348,0.0,2.0,69,0.00,,---,0.01,0.00,VWS V14.01,2013-03-02 02:16:00,
2013-03-01 20:21:00,18.8,10.6,30.27,NNW,348,1.0,2.0,70,0.00,,---,0.01,0.00,VWS V14.01,2013-03-02 02:21:00,
2013-03-01 20:26:00,18.5,10.7,30.27,NNW,348,0.0,2.0,71,0.00,,---,0.01,0.00,VWS V14.01,2013-03-02 02:26:00,
2013-03-01 20:31:00,18.3,10.5,30.27,NNW,348,0.0,2.0,71,0.00,,---,0.01,0.00,VWS V14.01,2013-03-02 02:31:00,
2013-03-01 20:36:00,18.2,10.7,30.27,NNW,348,0.0,2.0,72,0.00,,---,0.01,0.00,VWS V14.01,2013-03-02 02:36:00,
2013-03-01 20:41:00,18.0,10.5,30.27,NNW,348,0.0,2.0,72,0.00,,---,0.01,0.00,VWS V14.01,2013-03-02 02:41:00,
2013-03-01 20:46:00,17.9,10.7,30.27,NNW,348,0.0,2.0,73,0.00,,---,0.01,0.00,VWS V14.01,2013-03-02 02:46:00,
2013-03-01 20:51:00,17.9,11.0,30.27,NNW,348,0.0,2.0,74,0.00,,---,0.01,0.00,VWS V14.01,2013-03-02 02:51:00,
2013-03-01 20:56:00,17.9,11.0,30.27,NNW,348,0.0,2.0,74,0.00,,---,0.01,0.00,VWS V14.01,2013-03-02 02:56:00,
2013-03-01 21:00:00,16.7,11.1,30.27,NNW,348,0.0,2.0,78,0.00,,---,0.01,0.00,VWS V14.01,2013-03-02 03:00:00,
2013-03-01 21:01:00,17.9,11.3,30.27,NNW,348,0.0,0.0,75,0.00,,---,0.01,0.00,VWS V14.01,2013-03-02 03:01:00,
2013-03-01 21:06:00,17.9,11.3,30.27,NNW,348,0.0,0.0,75,0.00,,---,0.01,0.00,VWS V14.01,2013-03-02 03:06:00,
2013-03-01 21:11:00,17.8,11.2,30.27,NNW,348,0.0,1.0,75,0.00,,---,0.01,0.00,VWS V14.01,2013-03-02 03:11:00,
2013-03-01 21:16:00,17.8,11.5,30.27,NNW,348,0.0,1.0,76,0.00,,---,0.01,0.00,VWS V14.01,2013-03-02 03:16:00,
2013-03-01 21:21:00,17.7,11.1,30.27,NNW,348,0.0,2.0,75,0.00,,---,0.01,0.00,VWS V14.01,2013-03-02 03:21:00,
2013-03-01 21:26:00,17.5,10.9,30.27,NNW,348,0.0,2.0,75,0.00,,---,0.01,0.00,VWS V14.01,2013-03-02 03:26:00,
2013-03-01 21:31:00,17.3,10.8,30.27,NNW,348,0.0,2.0,75,0.00,,---,0.01,0.00,VWS V14.01,2013-03-02 03:31:00,
2013-03-01 21:36:00,17.1,10.6,30.27,NNW,348,1.0,2.0,75,0.00,,---,0.01,0.00,VWS V14.01,2013-03-02 03:36:00,
2013-03-01 21:41:00,17.0,10.8,30.27,NNW,348,1.0,2.0,76,0.00,,---,0.01,0.00,VWS V14.01,2013-03-02 03:41:00,
2013-03-01 21:46:00,16.8,10.9,30.27,NNW,348,0.0,2.0,77,0.00,,---,0.01,0.00,VWS V14.01,2013-03-02 03:46:00,
2013-03-01 21:51:00,16.8,10.9,30.27,NNW,348,0.0,2.0,77,0.00,,---,0.01,0.00,VWS V14.01,2013-03-02 03:51:00,
2013-03-01 21:56:00,16.7,10.8,30.27,NNW,348,0.0,2.0,77,0.00,,---,0.01,0.00,VWS V14.01,2013-03-02 03:56:00,
2013-03-01 22:00:00,16.7,11.1,30.27,NNW,348,1.0,2.0,78,0.00,,---,0.01,0.00,VWS V14.01,2013-03-02 04:00:00,
2013-03-01 22:01:00,16.7,11.1,30.27,NNW,348,0.0,1.0,78,0.00,,---,0.01,0.00,VWS V14.01,2013-03-02 04:01:00,
2013-03-01 22:06:00,16.7,11.1,30.27,NNW,348,0.0,1.0,78,0.00,,---,0.01,0.00,VWS V14.01,2013-03-02 04:06:00,
2013-03-01 22:11:00,16.7,11.1,30.27,NNW,348,0.0,1.0,78,0.00,,---,0.01,0.00,VWS V14.01,2013-03-02 04:11:00,
2013-03-01 22:16:00,16.8,11.4,30.27,NNW,348,1.0,2.0,79,0.00,,---,0.01,0.00,VWS V14.01,2013-03-02 04:16:00,
2013-03-01 22:21:00,16.8,11.4,30.27,NNW,348,0.0,2.0,79,0.00,,---,0.01,0.00,VWS V14.01,2013-03-02 04:21:00,
2013-03-01 22:26:00,16.9,11.5,30.27,NNW,348,0.0,2.0,79,0.00,,---,0.01,0.00,VWS V14.01,2013-03-02 04:26:00,
2013-03-01 22:31:00,16.9,11.5,30.27,NNW,348,0.0,2.0,79,0.00,,---,0.01,0.00,VWS V14.01,2013-03-02 04:31:00,
2013-03-01 22:36:00,17.0,11.9,30.27,NNW,348,0.0,2.0,80,0.00,,---,0.01,0.00,VWS V14.01,2013-03-02 04:36:00,
2013-03-01 22:41:00,17.0,11.9,30.27,NNW,348,0.0,2.0,80,0.00,,---,0.01,0.00,VWS V14.01,2013-03-02 04:41:00,
2013-03-01 22:46:00,17.0,11.9,30.27,NNW,348,1.0,2.0,80,0.00,,---,0.01,0.00,VWS V14.01,2013-03-02 04:46:00,
2013-03-01 22:51:00,16.9,11.5,30.27,NNW,348,2.0,2.0,79,0.00,,---,0.01,0.00,VWS V14.01,2013-03-02 04:51:00,
2013-03-01 22:56:00,16.8,11.4,30.27,NNW,348,1.0,2.0,79,0.00,,---,0.01,0.00,VWS V14.01,2013-03-02 04:56:00,
2013-03-01 23:00:00,16.6,10.9,30.27,NNW,348,1.0,1.0,78,0.00,,---,0.01,0.00,VWS V14.01,2013-03-02 05:00:00,
2013-03-01 23:05:00,16.5,10.9,30.27,NNW,348,0.0,1.0,78,0.00,,---,0.01,0.00,VWS V14.01,2013-03-02 05:05:00,
2013-03-01 23:10:00,16.4,10.8,30.27,NNW,348,0.0,1.0,78,0.00,,---,0.01,0.00,VWS V14.01,2013-03-02 05:10:00,
2013-03-01 23:15:00,15.9,10.0,30.27,NNW,348,1.0,2.0,77,0.00,,---,0.01,0.00,VWS V14.01,2013-03-02 05:15:00,
2013-03-01 23:20:00,15.0,8.5,30.27,NNW,348,2.0,2.0,75,0.00,,---,0.01,0.00,VWS V14.01,2013-03-02 05:20:00,
2013-03-01 23:25:00,14.3,8.1,30.27,NNW,348,0.0,2.0,76,0.00,,---,0.01,0.00,VWS V14.01,2013-03-02 05:25:00,
2013-03-01 23:30:00,14.1,8.2,30.27,NNW,348,0.0,2.0,77,0.00,,---,0.01,0.00,VWS V14.01,2013-03-02 05:30:00,
2013-03-01 23:35:00,14.0,8.4,30.27,NNW,348,0.0,2.0,78,0.00,,---,0.01,0.00,VWS V14.01,2013-03-02 05:35:00,
2013-03-01 23:40:00,13.9,8.6,30.27,NNW,348,0.0,2.0,79,0.00,,---,0.01,0.00,VWS V14.01,2013-03-02 05:40:00,
2013-03-01 23:45:00,13.7,8.7,30.27,NNW,348,0.0,2.0,80,0.00,,---,0.01,0.00,VWS V14.01,2013-03-02 05:45:00,
2013-03-01 23:50:00,13.5,8.2,30.27,NNW,348,2.0,2.0,79,0.00,,---,0.01,0.00,VWS V14.01,2013-03-02 05:50:00,
2013-03-01 23:55:00,12.9,7.3,30.28,NNW,333,1.0,4.0,78,0.00,,---,0.01,0.00,VWS V14.01,2013-03-02 05:55:00,